Погода в Борках

Россия / Рязанская область     53°56′37″N   41°49′19″E
темп.,
°C
ветер,
м/с
пор.,
м/с
влажн.,
%
обл.,
%
осадки,
мм/ч
давл.,
гПа
погр.,
м
19 апреля, пн
пн1900:00+8св3985100 0.6 1020412
03:00+7всв5980100 1.2 1020358
06:00+6всв5981100 1.1 1019363
09:00+7всв6981100 1.7 1020827
12:00+8в71075100 1.5 10201091
15:00+7вюв3888100 6.6 1020837
18:00+7в71184100 2.8 10211014
21:00+6всв61276100 2.8 1021737
20 апреля, вт
вт2000:00+6в71282100 0.1 1021787
03:00+4в71292100 0.9 1021753
06:00+3в61397100 2.6 1020658
09:00+3в61397100 3.6 1020747
12:00+4вюв81488100 0.8 1019907
15:00+3в81589100 1.5 1018833
18:00+4вюв81786100 0.7 1015948
21:00+4в112189100 4.9 1010875
21 апреля, ср
ср2100:00+5вюв112192100 9.6 10071218
03:00+7вюв101991100 11.5 1003991
06:00+9ююв101792100 3.0 10011248
09:00+5ю111686100 3.5 10051066
12:00+6ююз91580100 0.1 10081122
15:00+7юз71281100 0.1 10111233
18:00+7ююз51081100 0.1 1013564
21:00+6юз2389100 0.1 101570
22 апреля, чт
чт2200:00+5ююз35915 0.0 101675
03:00+5ююз238890 0.0 101777
06:00+5ю3593100 0.0 1018121
09:00+9ююз58747 0.1 1019731
12:00+13юз795423 0.0 10191606
15:00+15юз694890 0.0 10192246
18:00+12ююз3466100 0.1 102088
21:00+11ю3868100 0.1 1021156
23 апреля, пт
пт2300:00+8ююз378050 0.0 1021126
03:00+7ю368664 0.0 102198
06:00+7ю368851 0.0 1021126
09:00+13ю466741 0.0 1021453
12:00+16ю565346 0.2 10191493
15:00+16ю4650100 1.0 10181675
18:00+14юв5106472 0.6 1018429
21:00+11ю5128090 0.7 1018342